Location: Blankensee
(53.5126°N, 14.3055°E)
Time: 18:04:33
(UTC+00:00)

Cosmos 1461 - Pass Details

Date: 08 August 2020
Orbit: 501 x 665 km, 65.0° (Epoch: 20 September)

Event Time Altitude Azimuth Distance (km) Brightness Sun altitude
Exits shadow 01:52:58 16° 200° (SSW) 1,567 4.6 -12.0°
Maximum altitude 01:56:16 54° 126° (SE) 747 3.5 -11.7°
Drops below altitude 10° 02:00:45 10° 50° (NE) 2,029 7.2 -11.3°
Sets 02:03:08 0° 46° (NE) 2,964 8.8 -11.0°
